Date_and_time,latitude,longitude,wind_speed,RelWindDirFrom,WindDirFrom,air_pressure,air_temperature,relative_humidity,Temp,platform_speed_wrt_ground,air_pressure_at_mean_sea_level,platform_orientation
2019-02-12 23:40,50.63045,-96.980765,2.2,3.3,284,990.54,-9.3,97,0.49,0.0,1019.51,335.7
2019-02-12 23:50,50.63045,-96.9807666666667,2.9,4.7,291,990.61,-9.4,98,0.48,0.0,1019.58,335.7
2019-02-13 00:00,50.6304516666667,-96.9807683333333,4.0,5.9,303,990.64,-9.3,98,0.48,0.0,1019.61,270.0
2019-02-13 00:10,50.6304516666667,-96.9807683333333,4.0,5.9,301,990.62,-9.2,99,0.48,0.0,1019.59,270.0
2019-02-13 00:20,50.6304516666667,-96.9807666666667,3.7,5.3,289,990.61,-9.3,99,0.48,0.0,1019.57,270.0
2019-02-13 00:30,50.6304516666667,-96.9807666666667,3.2,4.6,286,990.55,-9.4,99,0.48,0.0,1019.51,270.0
2019-02-13 00:40,50.6304516666667,-96.9807666666667,3.2,4.9,284,990.49,-9.4,99,0.50,0.0,1019.45,270.0
2019-02-13 00:50,50.63045,-96.9807666666667,3.5,4.9,285,990.43,-9.4,99,0.51,0.0,1019.39,270.0
2019-02-13 01:00,50.63045,-96.9807666666667,3.3,4.3,280,990.41,-9.5,99,0.51,0.0,1019.39,270.0
2019-02-13 01:10,50.63045,-96.9807666666667,3.3,4.8,278,990.34,-9.6,99,0.52,0.0,1019.30,270.0
2019-02-13 01:20,50.63045,-96.9807666666667,3.5,4.5,275,990.29,-9.7,99,0.52,0.0,1019.24,270.0
2019-02-13 01:30,50.63045,-96.9807683333333,3.4,4.5,282,990.09,-9.8,99,0.52,0.0,1019.04,270.0
2019-02-13 01:40,50.63045,-96.9807683333333,3.5,4.1,279,989.97,-9.9,99,0.52,0.0,1018.93,270.0
2019-02-13 01:50,50.63045,-96.9807683333333,3.3,3.8,279,989.88,-10.0,99,0.53,0.0,1018.84,270.0
2019-02-13 02:00,50.63045,-96.9807683333333,2.1,2.9,287,989.79,-10.1,99,0.53,0.0,1018.75,0.0
2019-02-13 02:10,50.63045,-96.9807683333333,2.2,2.7,281,989.72,-10.3,99,0.53,0.0,1018.69,0.0
2019-02-13 02:20,50.63045,-96.9807683333333,2.2,2.8,277,989.69,-10.4,99,0.53,0.0,1018.67,0.0
2019-02-13 02:30,50.6304516666667,-96.9807683333333,2.8,3.3,268,989.64,-10.7,99,0.53,0.0,1018.64,0.0
2019-02-13 02:40,50.6304516666667,-96.9807683333333,3.4,4.4,266,989.55,-10.7,99,0.53,0.0,1018.55,0.0
2019-02-13 02:50,50.6304566666667,-96.9807366666667,4.0,4.8,251,989.51,-11.2,99,0.53,0.0,1018.53,0.0
2019-02-13 03:00,50.6304533333333,-96.9807433333333,5.1,6.0,258,989.44,-11.9,99,0.53,0.0,1018.51,90.0
2019-02-13 03:10,50.630455,-96.9807616666667,5.5,7.1,261,989.52,-11.8,99,0.54,0.0,1018.59,90.0
2019-02-13 03:20,50.6304566666667,-96.9807683333333,5.2,6.6,260,989.60,-11.9,99,0.54,0.0,1018.68,90.0
2019-02-13 03:30,50.6304566666667,-96.9807683333333,4.7,6.1,263,989.57,-12.0,99,0.54,0.0,1018.67,90.0
2019-02-13 03:40,50.630455,-96.9807666666667,5.0,6.4,264,989.58,-12.2,99,0.54,0.0,1018.69,90.0
2019-02-13 03:50,50.630455,-96.9807683333333,5.4,7.2,259,989.73,-12.5,99,0.54,0.0,1018.86,90.0
2019-02-13 04:00,50.630455,-96.9807666666667,5.9,8.8,257,989.82,-12.7,99,0.54,0.0,1018.98,90.0
2019-02-13 04:10,50.630455,-96.9807666666667,4.8,6.7,267,989.66,-13.1,99,0.53,0.0,1018.85,90.0
2019-02-13 04:20,50.6304566666667,-96.9807716666667,4.5,5.4,269,989.59,-13.4,99,0.54,0.0,1018.80,90.0
2019-02-13 04:30,50.6304616666667,-96.9807716666667,4.5,5.6,267,989.55,-13.5,99,0.53,0.0,1018.77,90.0
2019-02-13 04:40,50.6304433333333,-96.9807683333333,4.9,6.4,259,989.57,-13.7,99,0.53,0.0,1018.83,90.0
2019-02-13 04:50,50.630445,-96.98076,4.0,6.3,266,989.31,-13.8,99,0.53,0.0,1018.62,90.0
2019-02-13 05:00,50.6304466666667,-96.9807633333333,3.9,5.7,267,989.18,-14.1,99,0.53,0.0,1018.49,360.0
2019-02-13 05:10,50.63045,-96.9807616666667,4.1,6.2,258,989.12,-14.2,99,0.53,0.0,1018.43,360.0
2019-02-13 05:20,50.63045,-96.9807616666667,4.5,5.7,256,988.95,-14.4,99,0.53,0.0,1018.28,360.0
2019-02-13 05:30,50.630455,-96.9807866666667,4.1,5.7,255,988.82,-14.5,99,0.54,0.0,1018.16,360.0
2019-02-13 05:40,50.6304583333333,-96.9807883333333,4.5,6.8,251,988.80,-14.8,99,0.54,0.0,1018.18,360.0
2019-02-13 05:50,50.6304566666667,-96.9807866666667,4.8,6.2,254,988.64,-14.9,99,0.54,0.0,1018.03,360.0
2019-02-13 06:00,50.6304533333333,-96.980785,4.6,6.0,260,988.45,-15.0,99,0.54,0.0,1017.86,270.0
2019-02-13 06:10,50.6304566666667,-96.9807833333333,4.0,5.4,262,988.33,-15.1,98,0.54,0.0,1017.76,270.0
2019-02-13 06:20,50.6304266666667,-96.980785,3.9,5.6,263,988.30,-15.2,98,0.54,0.0,1017.75,270.0
2019-02-13 06:30,50.6304466666667,-96.98078,2.0,4.0,261,988.22,-15.2,97,0.54,0.0,1017.67,270.0
2019-02-13 06:40,50.6304466666667,-96.9807766666667,2.0,3.6,271,988.17,-15.6,96,0.54,0.0,1017.65,270.0
2019-02-13 06:50,50.630445,-96.9807766666667,1.2,3.2,261,988.00,-15.7,97,0.54,0.0,1017.49,270.0
2019-02-13 07:00,50.630455,-96.98076,2.0,2.9,247,987.99,-16.2,95,0.54,0.0,1017.52,90.0
2019-02-13 07:10,50.6304616666667,-96.9807916666667,1.9,3.2,241,987.81,-16.3,95,0.54,0.0,1017.36,90.0
2019-02-13 07:20,50.6304466666667,-96.9807716666667,2.1,3.1,236,987.85,-16.5,95,0.54,0.0,1017.41,90.0
2019-02-13 07:30,50.6304433333333,-96.9807683333333,2.7,3.8,245,987.80,-16.4,95,0.54,0.0,1017.37,90.0
2019-02-13 07:40,50.6304433333333,-96.9807666666667,3.0,4.0,240,987.75,-16.4,96,0.54,0.0,1017.33,90.0
2019-02-13 07:50,50.630445,-96.98077,3.6,4.7,247,987.79,-16.2,96,0.54,0.0,1017.36,90.0
2019-02-13 08:00,50.630445,-96.9807716666667,3.8,5.4,241,987.71,-16.2,96,0.54,0.0,1017.28,192.6
2019-02-13 08:10,50.630445,-96.9807716666667,5.1,6.6,247,987.81,-15.8,97,0.55,0.0,1017.37,192.6
2019-02-13 08:20,50.630445,-96.9807766666667,6.0,7.7,250,987.80,-15.7,97,0.55,0.0,1017.35,192.6
2019-02-13 08:30,50.6304466666667,-96.980765,6.0,7.4,248,987.84,-15.6,97,0.55,0.0,1017.41,192.6
2019-02-13 08:40,50.6304483333333,-96.9807633333333,7.2,9.5,250,988.01,-15.5,97,0.55,0.0,1017.59,192.6
2019-02-13 08:50,50.6304516666667,-96.98076,6.0,7.7,252,987.88,-15.3,97,0.55,0.0,1017.47,192.6
2019-02-13 09:00,50.6304533333333,-96.9807616666667,5.9,7.9,255,987.69,-15.0,98,0.55,0.0,1017.27,90.0
2019-02-13 09:10,50.6304533333333,-96.9807616666667,5.9,7.3,251,987.59,-14.7,98,0.55,0.0,1017.16,90.0
2019-02-13 09:20,50.6304533333333,-96.9807633333333,6.3,8.0,247,987.66,-14.5,99,0.55,0.0,1017.22,90.0
2019-02-13 09:30,50.630455,-96.9807633333333,5.9,8.1,245,987.58,-14.4,99,0.55,0.0,1017.11,90.0
2019-02-13 09:40,50.630455,-96.980765,4.9,6.4,243,987.36,-14.3,99,0.55,0.0,1016.88,90.0
2019-02-13 09:50,50.6304583333333,-96.9807833333333,4.3,5.6,235,987.12,-14.3,99,0.55,0.0,1016.62,90.0
2019-02-13 10:00,50.6304533333333,-96.9807633333333,4.3,5.4,229,986.97,-14.4,99,0.54,0.0,1016.46,270.0
2019-02-13 10:10,50.6304583333333,-96.9807666666667,4.1,5.7,228,986.77,-14.4,99,0.54,0.0,1016.26,270.0
2019-02-13 10:20,50.6304566666667,-96.9807683333333,5.3,6.8,238,986.79,-14.4,99,0.53,0.0,1016.26,270.0
2019-02-13 10:30,50.630455,-96.98077,5.8,7.3,241,986.66,-14.4,99,0.64,0.0,1016.12,270.0
2019-02-13 10:40,50.630455,-96.9807716666667,5.4,7.8,243,986.60,-14.4,99,0.54,0.0,1016.05,270.0
2019-02-13 10:50,50.630455,-96.9807716666667,5.4,7.2,239,986.48,-14.5,98,0.54,0.0,1015.91,270.0
2019-02-13 11:00,50.6304533333333,-96.9807733333333,5.1,7.3,235,986.38,-14.5,98,0.54,0.0,1015.80,360.0
2019-02-13 11:10,50.6304533333333,-96.9807683333333,4.0,6.4,235,986.33,-14.5,98,0.54,0.0,1015.74,360.0
2019-02-13 11:20,50.6304566666667,-96.9807633333333,1.7,3.5,212,986.28,-14.6,98,0.54,0.0,1015.67,360.0
2019-02-13 11:30,50.6304583333333,-96.98077,3.2,4.5,196,986.27,-14.6,98,0.53,0.0,1015.66,360.0
2019-02-13 11:40,50.6304616666667,-96.9807916666667,3.8,5.1,203,986.16,-14.7,98,0.52,0.0,1015.56,360.0
2019-02-13 11:50,50.6304533333333,-96.9807783333333,3.2,4.4,207,986.13,-14.7,98,0.53,0.0,1015.53,360.0
2019-02-13 12:00,50.6304483333333,-96.9807733333333,4.0,6.0,202,986.13,-14.7,98,0.53,0.0,1015.53,240.8
2019-02-13 12:10,50.6304533333333,-96.9807633333333,4.2,5.6,202,986.10,-14.8,97,0.53,0.0,1015.50,240.8
2019-02-13 12:20,50.6304516666667,-96.98077,4.1,5.3,202,985.89,-14.8,97,0.53,0.0,1015.29,240.8
2019-02-13 12:30,50.6304483333333,-96.98077,4.1,5.2,200,985.74,-14.8,96,0.54,0.0,1015.14,240.8
2019-02-13 12:40,50.63047,-96.98079,4.0,5.8,207,985.70,-14.9,96,0.54,0.0,1015.10,240.8
2019-02-13 12:50,50.630445,-96.9807916666667,5.0,6.4,215,985.74,-15.0,96,0.55,0.0,1015.15,240.8
2019-02-13 13:00,50.6304533333333,-96.9807666666667,4.9,8.1,229,985.75,-15.1,95,0.55,0.0,1015.16,0.0
2019-02-13 13:10,50.6304383333333,-96.9807783333333,4.3,6.2,242,985.66,-15.2,94,0.55,0.0,1015.08,0.0
2019-02-13 13:20,50.6304516666667,-96.9807783333333,4.2,5.8,242,985.47,-15.5,93,0.54,0.0,1014.91,0.0
2019-02-13 13:30,50.630455,-96.980775,3.1,4.5,238,985.30,-15.7,92,0.55,0.0,1014.75,0.0
2019-02-13 13:40,50.6304533333333,-96.980775,2.4,3.7,222,985.12,-15.8,93,0.55,0.0,1014.57,0.0
2019-02-13 13:50,50.6304533333333,-96.980775,2.8,3.8,206,985.02,-15.9,92,0.55,0.0,1014.47,0.0
2019-02-13 14:00,50.630455,-96.9807733333333,3.2,4.1,205,985.04,-16.1,92,0.55,0.0,1014.51,0.0
2019-02-13 14:10,50.6304616666667,-96.9807483333333,3.8,4.7,199,985.00,-16.2,90,0.54,0.0,1014.48,0.0
2019-02-13 14:20,50.6304583333333,-96.9807566666667,3.7,4.8,207,985.00,-16.3,88,0.55,0.0,1014.49,0.0
2019-02-13 14:30,50.630455,-96.98077,4.0,5.0,203,984.91,-16.4,87,0.55,0.0,1014.40,0.0
2019-02-13 14:40,50.6304516666667,-96.980765,3.4,4.6,197,984.79,-16.5,88,0.55,0.0,1014.29,0.0
2019-02-13 14:50,50.630445,-96.9807666666667,3.5,4.5,189,984.78,-16.3,88,0.55,0.0,1014.27,0.0
2019-02-13 15:00,50.6304483333333,-96.9807666666667,3.9,4.7,179,984.79,-16.2,88,0.54,0.0,1014.29,90.0
2019-02-13 15:10,50.6304483333333,-96.9807666666667,4.4,5.4,201,984.67,-16.1,87,0.53,0.0,1014.17,90.0
2019-02-13 15:20,50.6304466666667,-96.980765,4.1,4.9,206,984.67,-16.1,86,0.53,0.0,1014.18,90.0
2019-02-13 15:30,50.6304483333333,-96.980765,3.9,5.1,196,984.63,-16.1,87,0.53,0.0,1014.14,90.0
2019-02-13 15:40,50.6304483333333,-96.9807633333333,4.2,5.2,182,984.45,-16.1,88,0.54,0.0,1013.97,90.0
2019-02-13 15:50,50.6304483333333,-96.9807633333333,4.8,5.8,191,984.42,-16.1,88,0.54,0.0,1013.95,90.0
2019-02-13 16:00,50.6304483333333,-96.9807633333333,5.0,6.2,193,984.38,-16.1,88,0.54,0.0,1013.92,142.0
2019-02-13 16:10,50.6304483333333,-96.980765,6.7,7.7,171,984.22,-16.2,88,0.54,0.0,1013.77,142.0
2019-02-13 16:20,50.6304483333333,-96.980765,6.1,7.3,175,984.08,-16.3,87,0.54,0.0,1013.63,142.0
2019-02-13 16:30,50.63045,-96.9807666666667,6.2,7.0,179,983.96,-16.3,87,0.54,0.0,1013.50,142.0
2019-02-13 16:40,50.63045,-96.9807666666667,6.0,7.5,180,983.84,-16.2,87,0.54,0.0,1013.37,142.0
2019-02-13 16:50,50.6304483333333,-96.9807666666667,5.5,7.0,188,983.71,-16.0,87,0.54,0.0,1013.22,142.0
2019-02-13 17:00,50.63045,-96.9807683333333,5.1,6.2,189,983.54,-15.8,87,0.54,0.0,1013.03,90.0
2019-02-13 17:10,50.63045,-96.9807683333333,5.2,7.2,176,983.39,-15.9,86,0.54,0.0,1012.87,90.0
2019-02-13 17:20,50.6304483333333,-96.9807683333333,7.4,10.9,161,983.38,-16.2,88,0.54,0.0,1012.88,90.0
2019-02-13 17:30,50.63045,-96.9807683333333,5.8,7.3,193,983.30,-16.0,87,0.55,0.0,1012.79,90.0
2019-02-13 17:40,50.6304483333333,-96.9807683333333,6.9,8.3,196,983.31,-16.0,86,0.55,0.0,1012.80,90.0
2019-02-13 17:50,50.6304483333333,-96.9807683333333,7.0,8.4,193,983.20,-16.1,85,0.55,0.0,1012.69,90.0
2019-02-13 18:00,50.6304483333333,-96.9807683333333,7.4,10.3,201,983.07,-16.0,85,0.55,0.0,1012.57,0.0
2019-02-13 18:10,50.6304316666667,-96.9807833333333,8.0,9.9,185,982.76,-16.3,84,0.55,0.0,1012.26,0.0
2019-02-13 18:20,50.6304466666667,-96.9807883333333,8.6,10.4,186,982.78,-16.4,85,0.55,0.0,1012.28,0.0
2019-02-13 18:30,50.630455,-96.980775,7.2,10.1,186,982.66,-16.3,85,0.54,0.0,1012.15,0.0
2019-02-13 18:40,50.6304533333333,-96.9807783333333,8.2,11.3,198,982.45,-16.2,84,0.54,0.0,1011.91,0.0
2019-02-13 18:50,50.63045,-96.98078,7.1,8.9,184,982.25,-16.2,84,0.54,0.0,1011.70,0.0
2019-02-13 19:00,50.6304516666667,-96.9807783333333,8.0,10.2,189,982.06,-16.1,84,0.54,0.0,1011.50,293.6
2019-02-13 19:10,50.6304516666667,-96.9807766666667,8.7,11.5,186,981.81,-16.2,83,0.54,0.0,1011.27,293.6
2019-02-13 19:20,50.6304533333333,-96.980775,7.9,9.9,191,981.80,-16.1,83,0.54,0.0,1011.24,293.6
2019-02-13 19:30,50.6304533333333,-96.9807733333333,8.1,10.4,186,981.59,-16.0,82,0.54,0.0,1011.02,293.6
2019-02-13 19:40,50.6304533333333,-96.9807716666667,8.4,10.7,187,981.50,-16.0,81,0.54,0.0,1010.93,293.6
2019-02-13 19:50,50.6304533333333,-96.9807716666667,8.0,10.0,184,981.32,-15.9,81,0.55,0.0,1010.74,293.6
2019-02-13 20:00,50.6304483333333,-96.98076,8.6,10.5,186,981.31,-16.0,81,0.55,0.0,1010.75,167.4
2019-02-13 20:10,50.630435,-96.9807133333333,8.9,10.9,181,981.20,-16.1,82,0.55,0.0,1010.65,167.4
2019-02-13 20:20,50.6304433333333,-96.9807516666667,8.1,9.9,177,981.05,-16.0,81,0.55,0.0,1010.48,167.4
2019-02-13 20:30,50.630455,-96.9807566666667,7.4,9.3,176,980.86,-16.0,81,0.55,0.0,1010.28,167.4
2019-02-13 20:40,50.63045,-96.98075,6.9,8.7,175,980.70,-15.9,81,0.55,0.0,1010.11,167.4
2019-02-13 20:50,50.6304516666667,-96.9807533333333,6.2,7.8,178,980.68,-15.8,81,0.55,0.0,1010.08,167.4
2019-02-13 21:00,50.6304516666667,-96.9807566666667,5.6,7.1,177,980.68,-15.8,81,0.55,0.0,1010.08,12.6
2019-02-13 21:10,50.63045,-96.9807566666667,5.7,7.2,171,980.55,-15.9,81,0.55,0.0,1009.95,12.6
2019-02-13 21:20,50.63045,-96.9807583333333,6.0,7.3,171,980.42,-15.8,82,0.55,0.0,1009.80,12.6
2019-02-13 21:30,50.63046,-96.9807666666667,4.8,6.2,169,980.36,-15.8,83,0.55,0.0,1009.75,12.6
2019-02-13 21:40,50.630455,-96.9807633333333,3.9,5.4,178,980.48,-15.7,83,0.55,0.0,1009.86,12.6
2019-02-13 21:50,50.630435,-96.9807566666667,4.3,5.6,175,980.53,-15.7,83,0.55,0.0,1009.91,12.6
2019-02-13 22:00,50.6304433333333,-96.980765,3.9,5.2,173,980.43,-15.7,83,0.55,0.0,1009.82,137.2
2019-02-13 22:10,50.63044,-96.9807766666667,3.3,4.6,177,980.32,-15.7,83,0.55,0.0,1009.69,137.2
2019-02-13 22:20,50.6304466666667,-96.9807833333333,2.6,3.5,184,980.30,-15.7,84,0.54,0.0,1009.67,137.2
2019-02-13 22:30,50.630445,-96.9807766666667,2.0,2.7,155,980.13,-15.7,85,0.54,0.0,1009.49,137.2
2019-02-13 22:40,50.6304433333333,-96.9807733333333,1.8,3.1,112,979.99,-15.2,86,0.54,0.0,1009.32,137.2
2019-02-13 22:50,50.6304433333333,-96.980775,0.3,1.8,76,979.82,-14.7,86,0.54,0.0,1009.12,137.2
2019-02-13 23:00,50.6304483333333,-96.9807983333333,1.9,2.6,75,979.72,-14.8,87,0.54,0.0,1009.02,270.0
2019-02-13 23:10,50.6304483333333,-96.9807733333333,1.7,2.2,68,979.73,-15.1,88,0.54,0.0,1009.04,270.0
2019-02-13 23:20,50.6304433333333,-96.9807733333333,2.2,3.0,56,979.67,-15.3,89,0.54,0.0,1009.00,270.0
2019-02-13 23:30,50.6304233333333,-96.98077,2.4,2.9,54,979.68,-15.5,90,0.53,0.0,1009.00,270.0
2019-02-13 23:40,50.6304516666667,-96.98078,2.0,2.6,49,979.67,-15.5,91,0.54,0.0,1009.00,270.0
